User: anonymous   Login
Location: The Top Of The Sky Mini Observatory
(41.4300°N, 81.2300°W)
Time: 13:49:08
(UTC-04:00)
Language:

Iridium 86 - Orbit

View from above orbital plane
View from above orbital plane
View from above satellite
View from above satellite

Ground track
Ground track

The orbit data is extracted from the following two-line orbital elements,

1 25528U 98066B   15154.47384388  .00000169  00000-0  53395-4 0  9997
2 25528 086.3940 301.1267 0001982 093.7408 266.4015 14.34218738872625
Epoch (UTC): 03 June 2015 11:22:20
Eccentricity: 0.0001982
inclination: 86.3940°
perigee height: 776 km
apogee height: 779 km
right ascension of ascending node: 301.1267°
argument of perigee: 93.7408°
revolutions per day: 14.34218738
mean anomaly at epoch: 266.4015°
orbit number at epoch: 87262

The dashed part of the orbit path shows where the satellite is in the earth's shadow,  

DLR